Location: Tamazert
(32.6352°N, 5.2072°W)
Time: 05:08:18
(UTC+00:00)

Vanguard 2 - Pass Details

Date: 09 October 2022
Orbit: 553 x 2933 km, 32.9° (Epoch: 26 November)

Event Time Altitude Azimuth Distance (km) Brightness Sun altitude
Rises 16:42:24 0° 284° (WNW) 5,459 12.9 14.2°
Reaches altitude 10° 16:45:37 10° 281° (W) 4,726 12.9 13.5°
Maximum altitude 16:59:38 58° 207° (SSW) 3,095 11.1 10.7°
Drops below altitude 10° 17:16:58 10° 134° (SE) 5,699 11.7 7.1°
Sets 17:21:19 0° 131° (SE) 6,602 11.9 6.2°
